| time (UTC) | temp C | wind direction | speed KPH | gust KPH | rain 1hr cm | rain 24hr cm | rain mn cm | humidity % | barometer mb |
| 20260507093047 | 6 | 282 | 4.8 | 8.0 | 0.00 | 0.20 | 0.20 | 84 | 1016.7 |
| 20260507091545 | 6 | 275 | 4.8 | 8.0 | 0.00 | 0.20 | 0.20 | 83 | 1016.7 |
| 20260507090040 | 6 | 294 | 3.2 | 6.4 | 0.00 | 0.20 | 0.20 | 83 | 1016.5 |
| 20260507084536 | 6 | 278 | 4.8 | 8.0 | 0.00 | 0.20 | 0.20 | 83 | 1016.9 |
| 20260507083034 | 6 | 288 | 3.2 | 9.7 | 0.00 | 0.20 | 0.20 | 83 | 1016.9 |
| 20260507081533 | 6 | 274 | 4.8 | 6.4 | 0.00 | 0.20 | 0.20 | 83 | 1017.0 |
| 20260507080032 | 6 | 311 | 3.2 | 9.7 | 0.00 | 0.20 | 0.20 | 83 | 1017.1 |
| 20260507074531 | 7 | 282 | 3.2 | 9.7 | 0.00 | 0.20 | 0.20 | 83 | 1017.6 |
| 20260507073031 | 7 | 281 | 4.8 | 8.0 | 0.00 | 0.20 | 0.20 | 82 | 1017.6 |
| 20260507071529 | 6 | 278 | 3.2 | 8.0 | 0.03 | 0.20 | 0.20 | 82 | 1017.4 |
| 20260507070032 | 7 | 273 | 4.8 | 9.7 | 0.08 | 0.20 | 0.20 | 81 | 1017.5 |
| 20260507064525 | 7 | 298 | 3.2 | 9.7 | 0.10 | 0.20 | 0.20 | 81 | 1017.5 |
| 20260507063022 | 7 | 286 | 4.8 | 9.7 | 0.13 | 0.20 | 0.20 | 80 | 1017.6 |
| 20260507061520 | 7 | 306 | 1.6 | 4.8 | 0.13 | 0.18 | 0.18 | 79 | 1017.4 |
| 20260507060022 | 7 | 309 | 3.2 | 4.8 | 0.13 | 0.13 | 0.13 | 79 | 1017.9 |
| 20260507054519 | 7 | 312 | 3.2 | 4.8 | 0.10 | 0.10 | 0.10 | 79 | 1017.9 |
| 20260507053013 | 8 | 339 | 1.6 | 3.2 | 0.08 | 0.08 | 0.08 | 78 | 1017.5 |
| 20260507051511 | 8 | 284 | 3.2 | 8.0 | 0.05 | 0.05 | 0.05 | 75 | 1017.8 |
| 20260507050006 | 9 | 313 | 3.2 | 8.0 | 0.00 | 0.00 | 0.00 | 68 | 1017.7 |
| 20260507044505 | 10 | 314 | 1.6 | 6.4 | 0.00 | 0.00 | 0.00 | 62 | 1017.2 |
| 20260507043009 | 10 | 298 | 1.6 | 4.8 | 0.00 | 0.00 | 0.00 | 60 | 1017.3 |
| 20260507041503 | 10 | 34 | 0.0 | 8.0 | 0.00 | 0.00 | 0.00 | 60 | 1016.9 |
| 20260507040003 | 10 | 355 | 3.2 | 12.9 | 0.00 | 0.00 | 0.00 | 60 | 1017.3 |
| 20260507034503 | 10 | 42 | 3.2 | 12.9 | 0.00 | 0.00 | 0.00 | 60 | 1017.4 |
| 20260507033001 | 10 | 334 | 1.6 | 14.5 | 0.00 | 0.00 | 0.00 | 59 | 1017.4 |
| 20260507031600 | 10 | 5 | 4.8 | 14.5 | 0.00 | 0.00 | 0.00 | 59 | 1017.3 |
| 20260507030057 | 10 | 355 | 8.0 | 14.5 | 0.00 | 0.00 | 0.00 | 58 | 1016.8 |
| 20260507024605 | 10 | 284 | 3.2 | 16.1 | 0.00 | 0.00 | 0.00 | 58 | 1016.3 |
| 20260507023052 | 10 | 30 | 6.4 | 16.1 | 0.00 | 0.00 | 0.00 | 58 | 1016.1 |
| 20260507021549 | 10 | 345 | 6.4 | 12.9 | 0.00 | 0.00 | 0.00 | 57 | 1015.5 |
| 20260507020106 | 10 | 5 | 8.0 | 14.5 | 0.00 | 0.00 | 0.00 | 57 | 1015.4 |
| 20260507014552 | 10 | 317 | 4.8 | 14.5 | 0.00 | 0.00 | 0.00 | 55 | 1015.1 |
| 20260507013052 | 11 | 325 | 3.2 | 14.5 | 0.00 | 0.00 | 0.00 | 54 | 1014.6 |
| 20260507011545 | 11 | 5 | 1.6 | 12.9 | 0.00 | 0.00 | 0.00 | 53 | 1014.0 |
| 20260507010045 | 12 | 9 | 1.6 | 8.0 | 0.00 | 0.00 | 0.00 | 51 | 1013.6 |
| 20260507004552 | 12 | 40 | 4.8 | 12.9 | 0.00 | 0.00 | 0.00 | 51 | 1013.2 |
| 20260507003047 | 12 | 336 | 4.8 | 16.1 | 0.00 | 0.00 | 0.00 | 50 | 1013.2 |
| 20260507001546 | 13 | 34 | 6.4 | 14.5 | 0.00 | 0.00 | 0.00 | 49 | 1013.4 |
| 20260507000040 | 13 | 9 | 3.2 | 12.9 | 0.00 | 0.00 | 0.00 | 49 | 1013.4 |
| 20260506234544 | 14 | 332 | 1.6 | 14.5 | 0.00 | 0.00 | 0.00 | 49 | 1013.1 |
| 20260506233046 | 14 | 42 | 1.6 | 8.0 | 0.00 | 0.00 | 0.00 | 49 | 1013.1 |
| 20260506231538 | 15 | 37 | 3.2 | 9.7 | 0.00 | 0.00 | 0.00 | 48 | 1013.1 |
| 20260506230046 | 14 | 50 | 3.2 | 9.7 | 0.00 | 0.00 | 0.00 | 49 | 1013.1 |
| 20260506224537 | 15 | 341 | 3.2 | 17.7 | 0.00 | 0.00 | 0.00 | 48 | 1013.1 |
| 20260506223042 | 15 | 77 | 1.6 | 8.0 | 0.00 | 0.00 | 0.00 | 48 | 1013.0 |
| 20260506221533 | 14 | 55 | 1.6 | 11.3 | 0.00 | 0.00 | 0.00 | 50 | 1013.0 |
| 20260506220030 | 13 | 156 | 1.6 | 6.4 | 0.00 | 0.00 | 0.00 | 52 | 1013.0 |
| 20260506214539 | 13 | 321 | 3.2 | 12.9 | 0.00 | 0.00 | 0.00 | 52 | 1013.3 |
| 20260506213029 | 13 | 360 | 3.2 | 19.3 | 0.00 | 0.00 | 0.00 | 52 | 1013.5 |
| 20260506211529 | 13 | 14 | 3.2 | 14.5 | 0.00 | 0.00 | 0.00 | 52 | 1013.7 |
| 20260506210027 | 13 | 17 | 3.2 | 9.7 | 0.00 | 0.00 | 0.00 | 51 | 1013.7 |
| 20260506204527 | 13 | 26 | 3.2 | 16.1 | 0.00 | 0.00 | 0.00 | 52 | 1013.6 |
| 20260506203023 | 12 | 64 | 3.2 | 12.9 | 0.00 | 0.00 | 0.00 | 52 | 1013.7 |
| 20260506201521 | 12 | 21 | 3.2 | 11.3 | 0.00 | 0.00 | 0.00 | 53 | 1013.8 |
| 20260506200016 | 12 | 82 | 4.8 | 14.5 | 0.00 | 0.00 | 0.00 | 53 | 1013.7 |
| 20260506194512 | 12 | 18 | 3.2 | 17.7 | 0.00 | 0.00 | 0.00 | 54 | 1013.8 |
| 20260506193010 | 11 | 129 | 3.2 | 19.3 | 0.00 | 0.00 | 0.00 | 55 | 1013.8 |
| 20260506191509 | 11 | 355 | 4.8 | 17.7 | 0.00 | 0.00 | 0.00 | 54 | 1013.8 |
| 20260506190009 | 11 | 5 | 3.2 | 17.7 | 0.00 | 0.00 | 0.00 | 54 | 1013.9 |
| 20260506184503 | 11 | 71 | 3.2 | 12.9 | 0.00 | 0.00 | 0.00 | 56 | 1014.2 |
| 20260506183005 | 11 | 102 | 4.8 | 12.9 | 0.00 | 0.00 | 0.00 | 56 | 1014.5 |
| 20260506181623 | 10 | 98 | 1.6 | 14.5 | 0.00 | 0.00 | 0.00 | 57 | 1014.7 |
| 20260506180058 | 10 | 342 | 1.6 | 8.0 | 0.00 | 0.00 | 0.00 | 58 | 1014.8 |
| 20260506174556 | 10 | 336 | 1.6 | 14.5 | 0.00 | 0.00 | 0.00 | 58 | 1014.7 |
| 20260506173101 | 10 | 76 | 4.8 | 20.9 | 0.00 | 0.00 | 0.00 | 59 | 1014.7 |
| 20260506171553 | 10 | 80 | 4.8 | 17.7 | 0.00 | 0.00 | 0.00 | 60 | 1014.9 |
| 20260506170055 | 10 | 81 | 4.8 | 16.1 | 0.00 | 0.00 | 0.00 | 60 | 1014.8 |
| 20260506164549 | 9 | 22 | 1.6 | 16.1 | 0.00 | 0.00 | 0.00 | 61 | 1014.7 |
| 20260506163047 | 9 | 44 | 9.7 | 19.3 | 0.00 | 0.00 | 0.00 | 62 | 1014.5 |
| 20260506161547 | 8 | 32 | 3.2 | 17.7 | 0.00 | 0.00 | 0.00 | 63 | 1014.3 |
| 20260506160052 | 8 | 74 | 1.6 | 16.1 | 0.00 | 0.00 | 0.00 | 64 | 1013.9 |
| 20260506154540 | 8 | 197 | 4.8 | 20.9 | 0.00 | 0.00 | 0.00 | 65 | 1013.9 |
| 20260506153059 | 8 | 92 | 9.7 | 17.7 | 0.00 | 0.00 | 0.00 | 65 | 1013.6 |
| 20260506151543 | 8 | 56 | 11.3 | 25.7 | 0.00 | 0.00 | 0.00 | 66 | 1013.3 |
| 20260506150047 | 7 | 95 | 12.9 | 22.5 | 0.00 | 0.00 | 0.00 | 68 | 1012.9 |
| 20260506144537 | 7 | 77 | 6.4 | 19.3 | 0.00 | 0.00 | 0.00 | 69 | 1013.5 |
| 20260506143037 | 7 | 107 | 6.4 | 17.7 | 0.00 | 0.00 | 0.00 | 70 | 1013.3 |
| 20260506141536 | 7 | 198 | 6.4 | 24.1 | 0.00 | 0.00 | 0.00 | 72 | 1012.4 |
| 20260506140035 | 7 | 107 | 9.7 | 20.9 | 0.00 | 0.00 | 0.00 | 74 | 1012.8 |
| 20260506134533 | 6 | 45 | 3.2 | 12.9 | 0.00 | 0.00 | 0.00 | 76 | 1014.0 |
| 20260506133032 | 6 | 89 | 12.9 | 22.5 | 0.00 | 0.00 | 0.00 | 77 | 1013.2 |
| 20260506131538 | 6 | 32 | 1.6 | 14.5 | 0.00 | 0.00 | 0.00 | 78 | 1014.1 |
| 20260506130028 | 6 | 61 | 3.2 | 12.9 | 0.00 | 0.00 | 0.00 | 78 | 1013.4 |
| 20260506124527 | 6 | 65 | 3.2 | 12.9 | 0.00 | 0.00 | 0.00 | 78 | 1013.5 |
| 20260506123025 | 6 | 327 | 1.6 | 12.9 | 0.00 | 0.00 | 0.00 | 78 | 1013.3 |
| 20260506121523 | 6 | 331 | 3.2 | 11.3 | 0.00 | 0.00 | 0.00 | 78 | 1012.9 |
| 20260506120021 | 6 | 101 | 1.6 | 12.9 | 0.00 | 0.00 | 0.00 | 78 | 1012.3 |
| 20260506114521 | 6 | 118 | 0.0 | 12.9 | 0.00 | 0.00 | 0.00 | 78 | 1012.2 |
| 20260506113029 | 6 | 38 | 4.8 | 14.5 | 0.00 | 0.00 | 0.00 | 77 | 1012.1 |
| 20260506111513 | 6 | 107 | 3.2 | 12.9 | 0.00 | 0.00 | 0.00 | 76 | 1011.9 |
| 20260506110011 | 6 | 34 | 3.2 | 11.3 | 0.00 | 0.00 | 0.00 | 75 | 1011.8 |
| 20260506104507 | 7 | 5 | 3.2 | 12.9 | 0.00 | 0.00 | 0.00 | 74 | 1011.8 |
| 20260506103006 | 7 | 51 | 3.2 | 14.5 | 0.00 | 0.00 | 0.00 | 72 | 1011.5 |
| 20260506101501 | 7 | 99 | 4.8 | 16.1 | 0.00 | 0.00 | 0.00 | 69 | 1010.9 |
| 20260506100100 | 7 | 77 | 1.6 | 8.0 | 0.00 | 0.00 | 0.00 | 69 | 1010.7 |
| 20260506094559 | 7 | 360 | 4.8 | 12.9 | 0.00 | 0.00 | 0.00 | 68 | 1010.6 |